Location: Rockford
(42.2710°N, 89.0940°W)
Time: 10:59:44
(UTC-06:00)

Daily predictions for brighter satellites

Satellite Brightness Start Highest point End
(mag) Time Altitude Azimuth Time Altitude Azimuth Time Altitude Azimuth
Tsikada Rocket 4.1 17:14:51 10° S 17:21:13 83° E 17:27:41 10° N
MSX 3.9 17:16:35 10° SSE 17:22:13 63° ENE 17:27:52 10° N
Cosmos 1515 Rocket 3.8 17:22:42 10° N 17:27:02 47° ENE 17:31:19 10° SSE
Aureole 2 Rocket 4.4 17:28:42 10° SE 17:30:50 15° E 17:33:04 10° ENE
SKYMED 2 4.3 17:27:54 10° NNE 17:31:51 33° E 17:35:47 10° SSE
Cosmos 1151 Rocket 3.6 17:28:18 10° N 17:32:16 36° ENE 17:36:12 10° SE
COSMOS 2441 4.4 17:28:32 10° SSE 17:33:21 65° ENE 17:38:10 10° N
BREEZE M DEB (TANK) 2.4 17:31:57 10° NW 17:35:09 32° NNE 17:37:00 11° E
Lacrosse 5 rocket 2.2 17:33:28 10° NNW 17:36:43 27° NNE 17:40:07 10° E
Abrixas 4.4 17:35:44 10° S 17:37:46 17° SE 17:39:46 10° E
Cosmos 1844 Rocket 2.9 17:35:59 10° NNW 17:41:40 79° WSW 17:47:17 10° SSE
Cosmos 1500 Rocket 3.6 17:37:40 10° S 17:41:55 60° E 17:46:13 10° NNE
CZ-4 R/B 2.7 17:40:48 10° S 17:44:29 43° W 17:48:14 10° NNW
Meteor 1-28 Rocket 4.1 17:41:21 10° NE 17:44:36 28° E 17:47:50 10° SSE
Cosmos 1634 Rocket 3.9 17:39:08 10° N 17:45:19 69° E 17:51:27 10° SSE
Cosmos 1763 Rocket 4.0 17:42:16 10° SSW 17:47:27 64° WNW 17:52:36 10° NNE
Cosmos 389 Rocket 4.5 17:44:17 10° NNW 17:47:33 33° W 17:50:45 10° SSW
Cosmos 332 Rocket 3.9 17:46:33 10° SSW 17:51:22 80° WNW 17:56:16 10° NNE
Cosmos 372 Rocket 4.2 17:48:51 10° N 17:53:47 46° ENE 17:58:40 10° SE
Cosmos 1328 3.7 17:51:12 10° S 17:55:07 69° E 17:59:04 10° NNE
Meteor 2-2 Rocket 4.5 17:51:59 10° NNW 17:57:37 74° W 18:03:14 10° S
Cosmos 2360 Rocket 4.1 17:53:21 10° WSW 17:57:56 25° NW 18:02:32 10° N
MONITOR-E 4.4 17:54:50 10° S 17:58:00 77° W 18:01:10 10° NNW
NOSS 0 Rocket 3.9 17:51:58 10° SSW 17:58:08 69° ESE 18:04:19 10° NNE
Cosmos 1980 3.7 17:54:14 10° S 17:59:50 65° ESE 18:05:28 10° NNE
Cosmos 2084 3.2 18:00:20 10° SW 18:04:14 81° NW 18:07:19 15° NE
Cosmos 540 Rocket 3.4 17:59:56 10° S 18:05:02 66° ESE 18:10:11 10° NNE
OTV 4 2.4 18:04:55 10° WSW 18:07:25 24° SSW 18:09:45 11° SE
Meteor 2-10 4.0 18:03:44 10° N 18:08:46 58° ENE 18:13:53 10° SSE
SJ-6B 3.4 18:05:13 10° SE 18:08:57 36° ENE 18:12:45 10° N
Cosmos 44 3.4 18:04:12 10° SSW 18:09:27 72° ESE 18:13:37 15° NE
ALOS 3.3 18:06:03 10° ESE 18:09:47 24° ENE 18:13:31 10° NNE
USA 215 3.2 18:03:46 10° ESE 18:10:16 69° NE 18:16:47 10° NW
Cosmos 2333 Rocket 2.3 18:08:53 10° SSW 18:14:32 82° WNW 18:20:14 10° NNE
METEOR-M 4.2 18:11:33 10° SSE 18:16:46 57° ENE 18:22:01 10° N
Cosmos 1461 3.9 18:14:16 10° S 18:17:47 26° ESE 18:18:18 25° ESE
Resurs 01 Rocket 2.5 18:17:34 26° ENE 18:18:04 26° ENE 18:21:45 10° N
COSMO-SKYMED 1 2.8 18:15:38 10° N 18:19:58 72° WNW 18:24:17 10° SSW
Cosmos 1703 3.6 18:16:30 10° SSE 18:20:10 40° E 18:21:52 25° NE
Cosmos 371 Rocket 3.9 18:16:35 10° SW 18:21:17 56° WNW 18:26:03 10° NNE
Cosmos 1707 Rocket 3.9 18:18:15 10° N 18:22:21 39° ENE 18:26:25 10° SSE
Cosmos 2219 Rocket 2.9 18:18:25 10° SW 18:23:56 54° WNW 18:29:28 10° NNE
Cosmos 2058 2.8 18:20:17 10° S 18:24:23 85° E 18:28:30 10° N
Cosmos 1125 Rocket 4.1 18:23:26 10° NNW 18:28:33 60° WSW 18:33:38 10° S
DMSP B5D1-3 4.5 18:24:08 10° NNE 18:29:15 87° WNW 18:34:21 10° SSW
SL-19 R/B 4.5 18:24:24 10° SE 18:30:07 51° ENE 18:35:33 10° N
FREGAT/IRIS 3.9 18:27:30 10° SSE 18:32:18 22° N 18:33:32 10° N
Cosmos 2278 Rocket 2.5 18:25:08 10° NNW 18:30:48 72° WSW 18:36:27 10° SSE
Cosmos 1666 Rocket 3.8 18:29:15 10° SSE 18:33:19 42° E 18:34:05 38° ENE
Meteor 1-27 4.4 18:28:18 10° NNW 18:34:08 82° W 18:39:58 10° S
Cosmos 1626 2.4 18:30:43 10° SSE 18:34:03 44° ESE 18:34:03 44° ESE
Cosmos 2279 Rocket 4.0 18:30:11 10° N 18:36:25 83° W 18:42:38 10° S
Cosmos 1340 Rocket 2.7 18:34:06 10° S 18:38:03 87° W 18:40:58 18° N
Spot 2 Rocket 3.7 18:33:28 10° SE 18:38:12 43° ENE 18:42:59 10° N
NOAA 12 4.1 18:34:59 10° SSE 18:40:14 83° WSW 18:45:31 10° NNW
Cosmos 44 Rocket 4.5 18:37:01 10° WSW 18:41:51 41° NW 18:45:40 15° NNE
BREEZE-M DEB (TANK) 2.7 18:44:45 10° W 18:46:31 33° WNW 18:46:31 33° WNW
Cosmos 1538 Rocket 4.1 18:42:09 10° S 18:47:17 54° ESE 18:48:47 41° NE
Cosmos 1356 Rocket 3.2 18:43:45 10° S 18:47:32 61° ESE 18:47:32 61° ESE
USA 229 DEB 4.3 18:42:58 10° S 18:48:58 34° ESE 18:49:29 33° ESE
USA 229 4.3 18:43:05 10° S 18:49:04 33° ESE 18:49:31 33° ESE
Cosmos 1726 4.5 18:47:25 10° NNW 18:50:34 25° W 18:53:43 10° SSW
Lacrosse 5 3.9 18:48:47 10° NW 18:51:45 15° N 18:52:57 14° N
CENTAUR R/B 4.1 18:48:08 10° W 18:53:35 29° NW 18:59:12 11° NNE
Cosmos 2237 Rocket 3.0 18:50:45 10° SW 18:56:11 49° WNW 19:01:05 13° NNE
Nadezhda 4 Rocket 3.9 18:51:01 10° S 18:57:13 75° E 19:03:32 10° N
Cosmos 2369 Rocket 4.2 18:57:21 10° N 18:58:25 13° NNE 18:58:25 13° NNE
SL-16 R/B 2.0 18:55:48 10° SSW 19:01:27 82° ESE 19:03:37 40° NNE
Aureole 1 Rocket 4.0 18:56:42 10° S 19:01:10 47° ESE 19:01:10 47° ESE
Cosmos 1900 4.2 18:58:57 10° NNW 19:03:56 83° ENE 19:04:51 59° SE
Cosmos 304 Rocket 4.0 18:59:58 10° SSW 19:04:45 70° WNW 19:06:45 35° N
Aureole 2 Rocket 4.0 19:02:25 10° SW 19:05:54 38° WNW 19:07:19 28° NNW
Cosmos 2297 3.9 19:05:23 10° NNW 19:11:05 72° WSW 19:16:46 10° SSE
Cosmos 1805 Rocket 4.5 19:07:54 10° SSW 19:12:12 48° WNW 19:15:35 16° N
Cosmos 1092 Rocket 3.9 19:09:15 10° S 19:15:33 75° E 19:20:04 20° NNE
Lacrosse 5 rocket 2.2 19:12:22 10° WNW 19:16:02 42° SW 19:16:06 42° SW
Sich 1 4.1 19:29:42 10° SSW 19:33:56 43° WNW 19:34:13 43° WNW
Cosmos 1633 Rocket 4.3 19:34:20 10° SSW 19:37:48 40° WSW 19:37:48 40° WSW
CZ-4C R/B 4.5 19:40:06 10° NNW 19:42:41 17° N 19:42:41 17° N
ALOS 3.7 19:42:45 10° SSW 19:47:02 36° W 19:51:21 10° NNW
Resurs 01 Rocket 3.5 19:55:07 29° W 19:55:07 29° W 19:58:22 10° NW
